Wind_Speed
56 60 57 54 54 52 51 54 56 59 64 65 56 53 58 56 69 69 60 57 62 64 63 59 57 56 63 59 50 47 49 52 53 53 55 50 35 39 43 42 41 41 42
55 56 59 58 57 56 55 56 56 58 59 57 59 58 57 52 46 58 53 48 56 63 61 64 63 64 51 49 47 50 52 53 55 53 47 41 41 41 43 42 41 42 43
60 59 59 58 55 54 57 57 60 62 59 59 60 55 53 53 54 46 46 51 49 53 62 58 56 60 45 45 53 52 53 57 54 60 42 41 40 41 42 43 43 43 43
62 65 61 57 54 53 59 60 62 67 59 62 61 58 58 58 56 55 48 52 55 54 61 64 59 47 44 45 46 53 53 59 55 48 43 38 41 44 45 46 46 47 52
62 65 68 66 61 56 53 54 63 64 66 60 59 62 62 57 58 55 57 55 58 55 63 55 44 42 42 45 48 49 51 53 53 51 46 39 44 46 48 51 58 50 43
63 62 63 64 71 66 62 60 53 55 62 67 63 60 60 61 53 58 58 64 63 52 55 46 41 45 47 48 48 48 46 55 48 39 48 47 47 50 56 59 55 47 43
72 75 74 72 71 73 70 65 67 59 56 57 57 61 63 64 58 56 60 64 65 64 60 55 58 53 54 55 53 53 51 54 53 57 61 54 53 50 57 55 49 45 44
70 72 74 73 79 78 79 76 71 73 68 62 60 60 58 57 62 60 60 62 64 63 65 65 58 53 55 55 57 57 59 56 55 55 55 47 46 61 61 52 47 48 52
64 65 65 67 70 74 78 77 74 71 70 67 65 66 65 61 58 60 59 60 61 61 61 65 64 59 54 48 54 56 60 51 54 54 57 56 52 51 58 52 51 54 57
61 63 64 63 65 66 70 73 74 75 75 73 69 67 70 70 66 62 60 57 57 60 61 60 60 60 57 51 55 56 56 55 55 57 58 60 58 65 53 50 54 60 58
61 64 66 66 66 65 64 67 73 76 78 77 75 73 74 73 76 73 70 67 63 58 58 56 56 56 57 58 58 61 60 60 58 65 59 50 55 53 50 55 57 59 56
60 62 66 73 73 70 70 67 66 70 74 77 80 78 77 79 79 80 72 70 69 69 61 58 56 56 59 60 59 60 61 63 62 63 65 65 58 53 54 57 62 57 56
71 70 69 71 76 79 75 72 71 69 70 73 76 77 75 77 76 75 75 72 75 70 67 64 63 60 61 59 59 61 60 59 60 60 58 55 54 55 62 59 59 57 55
82 84 81 79 75 78 80 79 75 73 72 70 71 73 76 72 72 74 71 69 68 67 66 65 63 63 65 63 62 62 60 59 57 56 56 56 59 61 58 60 61 59 60
89 90 91 89 76 77 80 81 81 78 76 72 71 70 72 75 73 70 70 70 70 70 69 67 67 66 67 66 66 63 61 59 60 60 60 59 63 63 62 61 60 61 60
93 86 85 88 79 73 80 81 81 82 79 76 74 72 72 72 72 72 71 70 70 71 71 70 68 69 71 71 68 66 65 65 66 66 66 67 63 61 61 62 62 62 62
87 83 75 72 70 65 68 78 83 78 81 80 77 76 73 71 71 71 70 71 72 72 71 72 72 72 72 72 72 71 70 70 71 71 71 72 69 68 64 65 64 66 69
87 86 77 64 62 64 65 65 69 78 78 78 79 77 75 72 74 75 75 73 73 71 69 70 71 69 67 66 68 70 70 70 71 72 70 67 64 66 69 70 67 70 73
85 83 86 69 62 62 63 63 64 66 71 75 75 76 76 76 75 75 77 77 75 75 72 69 68 69 66 66 64 65 64 63 64 65 64 64 68 68 69 68 74 78 78
75 70 63 62 58 56 58 59 60 62 63 68 72 75 73 74 77 77 76 77 76 75 75 73 70 70 72 71 66 64 67 65 63 64 66 68 68 69 77 78 79 78 83
55 54 52 50 47 48 50 51 52 55 56 58 62 68 72 71 73 76 79 79 77 77 76 74 71 72 73 74 75 73 70 68 72 67 76 76 71 75 72 71 74 81 78
54 53 49 46 42 41 41 44 47 51 52 54 55 56 59 64 67 68 72 78 79 77 75 72 63 64 67 64 70 75 73 72 75 73 71 75 81 74 80 84 86 78 71
52 52 50 50 46 40 40 39 40 45 47 48 53 55 57 57 59 62 64 68 73 75 72 68 64 65 67 64 64 66 69 70 71 70 72 73 73 80 88 88 75 69 70
47 50 50 50 49 46 41 40 40 41 42 42 44 48 52 57 59 61 61 65 67 70 74 68 68 65 68 70 69 70 69 70 72 74 79 87 91 94 88 83 77 73 67
46 46 48 48 46 46 45 44 44 42 42 43 43 43 44 47 53 58 62 62 63 65 70 71 70 68 67 71 69 70 72 74 75 77 79 80 80 82 83 79 77 73 77
48 47 46 47 49 48 46 45 46 46 46 46 46 47 46 45 46 48 53 58 61 63 65 70 73 80 74 66 64 69 70 72 75 75 76 75 72 72 73 81 81 81 78
Wind_Direction
265 264 259 251 252 256 262 264 261 260 261 264 262 271 265 265 253 249 248 255 253 255 253 255 256 259 260 267 267 273 273 276 281 278 276 275 267 271 274 277 280 285 285
259 261 258 250 251 256 259 259 258 256 259 260 264 265 266 270 264 248 247 251 253 254 258 255 255 258 266 268 275 278 277 277 275 277 275 263 265 266 272 277 281 282 283
250 250 253 252 250 253 257 256 260 255 252 254 261 261 262 269 265 260 264 253 252 256 260 261 260 260 263 268 272 276 277 274 276 274 262 258 272 273 276 277 278 279 279
251 251 248 250 253 255 253 255 255 256 252 253 253 256 260 260 266 263 261 271 258 256 263 253 248 249 257 261 265 271 278 276 276 275 258 256 266 272 274 277 276 273 276
245 247 250 249 253 258 259 258 255 258 254 253 254 256 257 256 262 264 267 267 269 258 263 259 245 249 253 259 264 266 272 278 279 266 257 260 267 269 273 277 279 277 282
257 253 253 254 254 255 261 261 261 261 258 259 262 257 254 253 254 260 262 269 263 262 264 262 260 260 263 263 265 265 269 273 274 269 270 280 267 272 275 275 273 281 282
274 274 269 266 263 266 268 268 260 260 264 266 262 260 263 262 254 254 260 263 267 264 267 254 260 255 258 260 263 267 266 270 271 273 270 276 276 273 275 280 285 282 279
272 272 273 273 269 267 269 270 270 263 260 263 266 265 261 260 262 256 261 260 259 264 271 272 277 275 267 257 257 265 265 264 265 273 259 277 268 272 278 278 279 276 281
277 275 273 272 270 269 268 268 268 268 267 265 258 264 266 263 261 262 259 260 261 262 263 266 270 270 269 272 269 268 269 268 271 276 275 273 274 272 277 276 277 275 277
279 279 278 275 272 269 267 265 262 260 264 262 264 262 261 265 261 261 261 262 260 257 259 260 260 261 263 263 266 267 267 269 269 271 267 267 265 269 276 277 277 273 277
293 290 285 282 278 272 268 265 262 258 258 262 262 259 259 260 264 262 260 260 262 261 259 259 259 259 257 257 259 262 264 267 268 264 267 263 274 277 276 277 273 274 280
295 293 290 288 284 279 274 269 265 264 262 259 259 259 258 261 260 264 265 264 264 260 259 259 258 261 260 257 257 258 259 261 261 261 263 266 272 274 275 268 269 276 279
296 296 286 289 282 280 276 272 268 265 262 260 260 259 258 258 261 263 265 264 263 261 260 259 258 259 261 259 258 256 257 259 262 264 265 268 267 266 264 271 275 280 281
294 296 293 290 281 273 273 273 269 266 263 259 258 259 260 259 257 258 259 261 260 258 259 256 255 257 260 261 260 259 256 256 258 262 263 263 265 269 278 278 275 274 276
290 291 291 291 277 267 267 267 267 267 265 262 258 256 255 257 258 257 257 258 261 260 258 256 255 255 258 259 258 256 256 257 258 261 263 265 266 273 275 271 271 272 273
293 292 290 287 287 271 261 261 262 263 262 262 261 258 253 253 253 256 257 257 258 260 260 257 255 254 254 255 253 254 253 256 259 262 265 268 276 274 271 269 270 272 275
298 297 297 290 287 278 269 260 258 258 260 260 259 258 257 253 250 251 253 253 254 257 258 258 256 254 253 254 255 254 255 256 259 261 263 266 268 268 268 270 271 272 275
299 303 305 291 281 275 271 265 261 258 255 255 258 258 257 255 252 251 251 251 251 252 255 255 254 254 252 251 253 254 256 257 260 262 263 263 261 264 265 264 268 273 274
300 301 304 297 287 278 274 271 264 258 255 254 253 254 256 256 254 253 253 253 253 253 253 252 252 250 250 249 249 251 251 253 256 259 260 258 260 262 262 272 269 271 274
293 293 293 292 286 277 273 273 272 264 256 253 253 253 253 253 253 253 253 254 254 255 256 255 254 252 251 249 250 252 253 254 254 256 256 256 259 264 267 266 266 270 273
289 287 287 290 289 285 278 272 271 267 265 261 257 256 255 253 252 252 252 253 254 254 254 256 255 253 252 252 252 251 249 251 250 251 258 257 263 265 264 267 274 273 270
292 291 286 285 288 292 288 282 277 272 267 261 261 261 260 259 256 254 253 254 254 253 254 255 257 261 255 253 255 255 250 250 253 262 256 263 264 267 269 268 268 270 264
292 289 289 289 286 287 290 289 283 278 275 266 264 263 259 256 256 257 257 257 258 256 254 254 255 256 255 255 256 258 255 255 256 255 257 262 263 264 265 265 264 254 254
296 293 289 286 286 285 283 284 285 284 283 278 273 270 265 260 254 251 251 255 257 258 255 255 254 257 261 257 254 255 260 259 259 258 260 261 262 262 260 260 254 249 252
294 294 293 290 285 282 281 280 281 282 283 282 280 277 273 269 266 262 254 248 250 255 256 255 254 256 254 256 258 260 258 259 260 260 261 262 262 261 259 250 248 254 259
292 291 291 291 290 288 284 280 278 278 278 278 279 279 277 274 272 269 267 264 259 252 251 253 253 253 257 262 259 258 259 259 258 257 257 256 256 256 254 250 252 255 254
Height
5690 5693 5694 5694 5695 5696 5697 5697 5699 5700 5699 5698 5698 5698 5695 5694 5696 5696 5697 5700 5700 5701 5702 5703 5706 5705 5704 5705 5706 5704 5705 5704 5705 5706 5702 5700 5702 5704 5704 5702 5702 5701 5699
5676 5677 5678 5679 5679 5681 5681 5682 5681 5684 5685 5685 5684 5685 5685 5681 5678 5679 5681 5683 5685 5686 5688 5687 5691 5688 5690 5691 5690 5692 5692 5692 5691 5691 5691 5690 5691 5693 5692 5692 5690 5688 5686
5660 5662 5662 5663 5664 5664 5666 5666 5666 5667 5669 5670 5670 5670 5672 5671 5667 5665 5667 5668 5669 5672 5673 5673 5676 5674 5676 5679 5680 5679 5679 5677 5678 5676 5678 5679 5680 5680 5680 5678 5677 5676 5673
5645 5647 5647 5648 5648 5649 5650 5651 5651 5651 5651 5653 5655 5656 5658 5658 5656 5655 5653 5655 5656 5656 5658 5657 5659 5659 5663 5665 5664 5667 5665 5661 5662 5663 5663 5665 5666 5667 5666 5665 5664 5661 5660
5628 5629 5632 5633 5633 5634 5634 5635 5636 5635 5634 5635 5637 5638 5638 5641 5643 5641 5640 5639 5641 5640 5639 5639 5641 5644 5646 5649 5650 5653 5650 5649 5645 5649 5649 5651 5652 5653 5653 5651 5650 5647 5646
5613 5612 5614 5616 5617 5618 5619 5620 5620 5620 5620 5620 5620 5620 5622 5623 5627 5628 5624 5618 5621 5622 5624 5625 5629 5632 5633 5635 5636 5638 5637 5635 5633 5633 5636 5638 5639 5639 5638 5636 5634 5633 5633
5597 5598 5599 5600 5601 5601 5601 5602 5603 5604 5604 5605 5607 5607 5608 5608 5609 5610 5610 5606 5604 5607 5607 5612 5614 5617 5619 5621 5621 5621 5623 5625 5624 5623 5622 5627 5625 5624 5623 5622 5619 5619 5619
5582 5582 5581 5581 5583 5583 5583 5584 5585 5586 5587 5588 5589 5591 5593 5595 5594 5593 5592 5591 5591 5592 5592 5594 5595 5600 5603 5604 5604 5605 5606 5608 5610 5609 5606 5611 5611 5609 5608 5605 5605 5605 5605
5565 5565 5564 5562 5562 5563 5564 5564 5564 5565 5567 5569 5571 5572 5574 5579 5577 5574 5573 5574 5575 5579 5581 5580 5581 5585 5590 5591 5588 5587 5588 5591 5596 5596 5596 5597 5598 5591 5592 5591 5591 5590 5589
5548 5545 5543 5542 5542 5542 5542 5543 5542 5543 5545 5547 5551 5552 5554 5556 5559 5559 5555 5555 5559 5565 5565 5566 5568 5570 5571 5572 5569 5570 5572 5578 5579 5581 5581 5580 5582 5580 5578 5577 5576 5574 5574
5531 5527 5523 5521 5520 5518 5520 5521 5521 5521 5523 5523 5527 5532 5533 5534 5535 5537 5538 5538 5541 5543 5547 5550 5551 5552 5552 5554 5553 5552 5556 5559 5562 5558 5559 5557 5563 5564 5563 5562 5560 5560 5559
5514 5510 5505 5500 5497 5497 5496 5496 5496 5497 5500 5502 5503 5508 5511 5512 5514 5514 5515 5518 5520 5522 5528 5531 5533 5533 5534 5535 5535 5537 5539 5540 5543 5546 5547 5547 5547 5547 5547 5546 5544 5545 5544
5493 5490 5485 5481 5475 5471 5472 5473 5472 5472 5474 5479 5480 5483 5488 5490 5491 5493 5494 5496 5498 5501 5505 5508 5512 5515 5515 5516 5519 5521 5521 5523 5524 5526 5528 5530 5532 5531 5529 5528 5529 5528 5527
5470 5465 5461 5457 5452 5448 5446 5446 5448 5449 5450 5452 5455 5459 5463 5467 5469 5471 5472 5474 5476 5479 5481 5485 5488 5493 5496 5498 5501 5503 5504 5506 5507 5508 5511 5512 5513 5513 5511 5511 5512 5512 5511
5447 5440 5431 5425 5421 5421 5420 5420 5421 5422 5423 5427 5430 5432 5436 5441 5444 5446 5450 5453 5454 5456 5459 5463 5468 5472 5476 5479 5482 5485 5487 5488 5489 5491 5493 5495 5495 5494 5495 5495 5494 5494 5494
5421 5415 5404 5396 5392 5389 5390 5394 5393 5394 5398 5400 5403 5405 5410 5413 5419 5423 5427 5430 5432 5433 5437 5442 5446 5449 5453 5457 5459 5463 5466 5468 5470 5472 5474 5476 5473 5475 5476 5476 5476 5476 5476
5392 5388 5380 5372 5366 5362 5361 5361 5365 5369 5368 5372 5376 5378 5383 5393 5395 5398 5403 5407 5409 5410 5414 5418 5421 5424 5428 5432 5435 5439 5443 5446 5448 5450 5453 5454 5454 5455 5456 5456 5458 5457 5457
5369 5363 5355 5348 5343 5338 5335 5335 5335 5338 5344 5347 5347 5353 5359 5364 5368 5373 5376 5380 5384 5387 5390 5393 5397 5400 5403 5407 5410 5414 5418 5421 5424 5426 5429 5430 5432 5433 5434 5434 5437 5438 5437
5348 5342 5335 5328 5321 5317 5315 5313 5312 5313 5315 5320 5326 5329 5333 5338 5342 5346 5350 5353 5358 5362 5365 5369 5373 5377 5380 5383 5386 5390 5393 5397 5400 5402 5405 5408 5410 5410 5412 5413 5415 5417 5415
5325 5319 5316 5310 5304 5298 5295 5293 5291 5291 5292 5295 5299 5304 5309 5314 5317 5321 5325 5329 5333 5337 5341 5346 5350 5353 5357 5361 5364 5367 5370 5374 5376 5379 5383 5386 5387 5388 5389 5392 5393 5394 5393
5307 5302 5298 5294 5288 5282 5278 5275 5273 5273 5273 5274 5277 5280 5284 5289 5294 5297 5301 5304 5308 5313 5318 5323 5326 5330 5333 5337 5340 5344 5348 5351 5354 5356 5358 5362 5364 5366 5367 5369 5369 5370 5370
5290 5286 5282 5279 5273 5268 5263 5259 5257 5256 5256 5258 5259 5260 5262 5265 5269 5274 5277 5281 5284 5289 5294 5298 5304 5307 5310 5314 5318 5322 5325 5328 5329 5330 5334 5337 5339 5341 5344 5345 5346 5346 5348
5274 5270 5266 5262 5258 5254 5250 5246 5243 5242 5241 5239 5241 5242 5244 5246 5248 5251 5255 5259 5261 5266 5270 5276 5281 5284 5288 5291 5295 5298 5302 5305 5307 5308 5311 5313 5315 5317 5318 5319 5321 5323 5327
5260 5255 5252 5248 5244 5240 5237 5234 5231 5229 5227 5225 5224 5224 5224 5225 5228 5231 5234 5237 5240 5243 5248 5252 5257 5260 5263 5267 5270 5273 5277 5280 5282 5285 5286 5289 5291 5292 5293 5294 5297 5302 5306
5246 5242 5238 5235 5231 5228 5225 5221 5218 5216 5213 5212 5211 5209 5208 5208 5208 5209 5211 5214 5217 5220 5224 5229 5233 5236 5239 5242 5245 5248 5251 5254 5256 5258 5260 5262 5264 5266 5269 5272 5276 5280 5284
5234 5229 5225 5222 5218 5214 5211 5208 5205 5202 5200 5197 5196 5195 5194 5192 5191 5191 5192 5193 5195 5197 5200 5204 5208 5213 5216 5218 5220 5224 5226 5229 5231 5234 5236 5237 5240 5244 5247 5252 5254 5257 5258